Location: Ecklingerode
(51.5036°N, 10.3122°E)
Time: 01:46:54
(UTC+00:00)

Cosmos 1553 Rocket - Pass Details

Date: 29 October 2020
Orbit: 940 x 1009 km, 82.9° (Epoch: 23 November)

Event Time Altitude Azimuth Distance (km) Brightness Sun altitude
Rises 17:42:26 0° 189° (S) 3,709 7.2 -16.9°
Reaches altitude 10° 17:44:58 10° 190° (S) 2,756 6.5 -17.3°
Maximum altitude 17:51:18 86° 278° (W) 995 4.0 -18.3°
Drops below altitude 10° 17:57:36 10° 9° (N) 2,728 6.3 -19.3°
Sets 18:00:05 0° 10° (N) 3,669 6.9 -19.7°
